SCP
0 0 0 0 1 1 1 0 0 0 0 0 0 0 0 0 0 0 0 0 0 0 0 1 1 1 1 1 1 1 1 1 1 1 1 0 1 1 1 1 1 1 0 0 0 0 0 0 0
0 0 0 0 1 1 1 0 0 0 0 0 0 0 0 0 0 0 0 0 0 0 1 1 1 1 1 1 1 1 1 1 1 1 1 0 0 1 1 1 1 1 1 1 0 0 0 0 0
0 0 0 0 0 0 0 0 0 0 0 0 0 0 0 0 0 0 0 0 0 1 1 1 1 1 1 1 1 1 1 1 1 1 0 0 0 0 0 1 1 1 1 1 1 0 0 0 0
0 0 0 0 0 0 0 0 0 0 0 0 0 0 0 0 0 0 0 0 1 1 1 1 1 1 1 1 1 1 1 1 1 1 0 0 0 0 0 0 1 1 1 1 1 0 0 0 0
0 0 0 0 0 0 0 0 0 0 0 0 0 0 0 0 0 0 0 0 0 1 1 1 1 1 1 1 1 0 1 1 1 1 1 0 0 0 0 0 0 1 1 1 1 0 0 0 0
0 0 0 0 0 0 0 0 0 0 0 0 0 0 0 0 0 0 0 0 0 0 1 1 1 1 1 1 1 0 1 1 1 1 1 1 0 0 0 0 0 1 1 1 1 0 0 0 0
0 0 0 0 0 0 0 0 0 0 0 0 0 0 0 0 0 0 0 0 0 0 0 1 1 1 1 1 1 0 0 1 1 1 1 0 0 0 0 0 0 1 1 1 1 0 0 0 0
0 0 0 0 0 0 0 0 0 0 0 0 0 0 0 0 0 0 0 0 0 0 0 0 1 1 1 1 0 0 0 1 1 1 1 0 0 0 0 0 0 0 1 1 1 1 0 0 0
0 0 0 0 0 0 0 0 0 0 0 0 0 0 0 0 0 0 0 0 0 0 0 0 0 1 1 1 0 0 0 0 0 0 0 0 0 0 0 0 0 0 0 1 1 1 0 0 0
0 0 0 0 0 0 0 0 0 0 0 0 0 0 0 0 0 0 0 0 0 0 0 0 0 0 1 0 0 0 0 0 0 0 0 0 0 0 0 0 0 0 0 0 0 0 0 0 0
0 0 0 0 0 0 0 0 0 0 0 0 0 0 0 0 0 0 0 0 0 0 0 0 0 0 0 0 0 0 0 0 0 0 0 0 0 1 1 0 0 0 0 0 0 0 0 0 0
0 0 0 0 0 0 0 0 0 0 0 0 0 0 0 0 0 0 0 0 0 0 0 0 0 0 0 1 0 0 0 0 0 0 0 0 0 1 1 1 0 0 0 0 0 0 0 0 0
0 0 0 0 0 0 0 0 0 0 0 0 0 0 0 0 0 0 0 0 0 0 0 0 0 0 0 1 0 0 0 0 0 0 0 0 0 1 1 0 0 0 0 0 1 1 0 0 0
0 0 0 0 0 0 0 0 0 0 0 0 0 0 0 0 0 0 0 0 0 0 0 0 0 0 0 1 1 0 0 0 0 0 0 0 0 1 1 0 0 0 0 1 1 1 0 0 0
0 0 0 0 0 0 0 0 0 0 0 0 0 0 0 0 0 0 0 0 0 0 0 0 0 0 0 0 0 0 0 0 0 0 0 0 1 1 1 0 0 0 0 1 1 1 0 0 0
0 0 0 0 0 0 0 0 0 0 0 0 0 0 0 0 0 0 0 0 0 0 0 0 0 0 1 0 0 0 0 0 0 0 0 0 1 1 1 1 0 0 0 1 1 1 0 0 0
0 0 0 0 0 0 0 0 0 0 0 0 0 0 0 0 0 0 0 0 0 0 0 0 0 0 1 1 1 0 0 0 0 0 0 0 1 1 1 1 0 0 0 1 1 0 0 0 0
0 0 0 0 0 0 0 0 0 0 0 0 0 0 0 0 0 0 0 0 0 0 0 0 0 0 1 1 1 1 0 0 0 0 0 0 0 1 1 1 0 0 0 1 1 1 0 0 0
0 0 0 0 0 0 0 0 0 0 0 0 0 0 0 0 0 0 0 0 0 0 0 0 0 0 0 1 1 1 1 1 0 0 0 0 0 1 1 1 0 0 0 1 1 1 0 0 0
0 0 0 0 0 0 0 0 0 0 0 0 0 0 0 0 0 0 0 0 0 0 0 0 0 0 0 1 1 1 1 1 1 0 0 0 0 0 0 0 0 0 0 1 1 0 0 0 0
0 0 0 0 0 0 0 0 0 0 0 0 0 0 0 0 0 0 0 0 0 0 0 0 0 0 0 0 1 1 1 1 1 1 0 0 0 0 0 0 0 0 0 1 1 0 0 0 0
0 0 0 0 0 0 0 0 0 0 0 0 0 0 0 0 0 0 0 0 0 0 0 0 0 0 0 0 0 0 1 1 1 1 1 1 0 0 0 0 0 1 0 0 0 0 0 0 0
0 0 0 0 0 0 0 0 0 0 0 0 0 0 0 0 0 0 0 0 0 0 0 0 0 0 0 0 0 0 0 0 1 1 1 1 1 0 0 0 0 0 0 0 0 0 0 0 0
0 0 0 0 0 0 0 0 0 0 0 0 0 0 0 0 0 0 0 0 0 0 0 0 0 0 0 0 0 0 0 0 0 0 1 1 1 0 0 0 0 0 0 0 0 0 0 0 0
0 0 0 0 0 0 0 0 0 0 0 0 0 0 0 0 0 0 0 0 0 0 0 0 0 0 0 0 0 0 0 0 0 0 0 0 0 0 0 0 0 0 0 0 0 0 0 0 0
0 0 0 0 0 0 0 0 0 0 0 0 0 0 0 0 0 0 0 0 0 0 0 0 0 0 0 0 0 0 0 0 0 0 0 0 0 0 0 0 1 1 0 0 0 0 0 0 0
0 0 0 0 0 0 0 0 0 0 0 0 0 0 0 0 0 0 0 0 0 0 0 0 0 0 0 0 0 0 0 0 0 0 0 0 0 0 0 0 0 0 1 1 1 1 0 0 0
0 0 0 0 0 0 0 0 0 0 0 0 0 0 0 0 0 0 0 0 0 0 0 0 0 0 0 0 0 0 0 0 0 0 0 0 0 0 0 0 0 0 0 0 1 1 1 0 0
0 0 0 0 0 0 0 0 0 0 0 0 0 0 0 0 0 0 0 0 0 0 0 0 0 0 0 0 0 0 0 0 0 0 0 0 0 0 0 0 0 0 0 0 0 0 0 0 0
0 0 0 0 0 0 0 0 0 0 0 0 0 0 0 0 0 0 0 0 0 0 0 0 0 0 0 0 0 0 0 0 0 0 0 0 0 0 0 0 0 0 0 0 0 0 0 0 0
Wind_Speed
5 3 1 2 4 4 7 4 3 3 3 1 0 2 2 1 1 2 4 3 4 7 7 8 7 8 8 8 8 8 8 8 8 9 9 9 9 9 8 9 9 9 9 10 10 10 11 11 11
3 2 1 2 5 7 6 5 6 3 2 2 2 1 2 1 2 3 3 3 5 7 7 7 8 8 8 8 8 8 8 7 8 8 9 9 8 8 8 8 9 9 9 9 10 10 10 11 11
1 2 1 3 6 7 5 4 4 2 2 3 2 1 1 1 2 2 2 4 6 7 7 7 7 8 8 8 8 7 7 7 7 7 8 8 8 7 7 8 8 9 9 9 10 10 10 10 10
1 1 2 5 8 6 4 2 2 4 3 2 3 3 2 2 2 2 3 5 7 7 6 7 7 8 8 8 7 7 7 7 7 7 7 8 7 7 7 7 8 8 9 9 10 9 10 10 10
1 2 4 6 8 5 3 2 2 4 3 3 3 2 3 3 2 3 4 6 7 6 5 7 7 7 7 7 7 7 7 6 6 6 7 8 7 7 7 7 7 8 8 9 9 9 9 9 9
2 3 5 8 9 6 4 3 3 4 4 3 3 3 2 3 2 3 4 5 6 6 5 5 6 6 6 6 7 6 6 6 6 6 7 7 7 7 6 6 7 7 8 8 8 8 8 8 8
3 3 5 6 7 7 5 3 4 5 5 4 3 3 3 3 3 3 4 4 5 5 4 4 5 6 6 5 5 6 5 5 5 6 6 6 6 6 6 6 6 7 7 7 8 8 8 8 8
1 3 5 6 7 7 4 4 3 5 4 0 2 4 2 3 4 4 4 4 4 4 3 3 4 4 5 5 5 5 5 5 5 5 5 5 5 5 5 5 6 6 7 7 7 7 7 8 7
2 4 6 6 6 4 4 5 3 1 2 2 2 2 2 5 6 6 4 4 4 3 3 3 3 3 3 4 5 5 4 4 4 5 5 4 3 3 4 4 4 5 6 7 7 7 7 7 7
3 6 6 3 3 3 3 4 3 4 5 5 4 2 3 6 6 7 6 6 5 5 4 3 4 3 3 3 3 3 3 3 3 3 3 2 2 2 2 5 4 5 5 6 7 7 6 3 3
2 4 3 2 2 2 3 3 3 5 7 6 6 5 5 6 7 6 6 6 6 5 4 3 3 4 4 3 3 2 2 2 2 2 2 2 1 2 2 2 3 4 4 4 5 4 2 2 2
2 2 3 2 1 2 3 3 4 7 6 4 4 3 6 7 7 7 6 5 4 5 4 4 3 3 3 3 3 3 2 2 2 2 2 2 1 1 2 1 2 2 2 2 2 2 3 2 2
4 3 2 2 2 3 4 6 6 8 7 5 3 4 6 7 6 5 4 4 4 4 4 4 4 4 3 3 2 2 3 2 2 2 2 2 2 2 2 2 2 2 2 2 2 2 3 2 2
1 2 3 3 3 3 5 7 6 9 6 5 5 6 6 6 6 5 5 5 5 5 5 4 4 4 4 3 3 3 2 2 2 2 2 2 2 2 2 2 2 2 2 2 2 2 2 2 1
1 2 4 3 4 2 4 8 8 8 6 6 6 6 6 6 6 6 6 6 6 6 5 5 5 5 5 4 3 3 2 2 2 2 2 2 2 2 2 2 2 2 2 2 2 3 2 2 1
2 3 4 2 1 1 5 10 4 2 5 7 6 6 6 6 6 6 7 6 6 6 6 5 4 5 5 4 4 3 2 3 2 2 2 3 3 3 3 2 3 3 3 3 3 2 2 2 2
3 4 6 3 1 2 5 8 3 2 5 7 7 7 6 7 7 7 6 7 6 6 6 6 6 6 6 5 4 3 3 2 2 2 2 2 3 3 3 2 2 3 3 3 3 3 2 2 2
4 5 5 5 1 3 7 10 9 7 7 9 9 8 8 8 8 7 6 6 6 5 6 6 6 6 6 5 4 3 3 2 2 2 2 3 3 3 3 3 3 4 4 3 3 3 2 2 2
2 4 7 5 2 5 9 13 13 9 9 11 10 9 9 8 7 5 5 6 6 5 6 6 6 6 6 5 4 4 4 3 3 3 3 3 3 4 3 3 3 4 4 4 5 4 3 2 2
5 6 7 5 2 5 9 14 12 10 11 11 10 9 8 7 5 4 5 5 6 7 7 7 7 7 7 5 5 4 4 4 3 3 3 4 4 4 3 4 3 4 4 5 5 4 3 2 2
7 8 7 6 6 5 9 11 8 6 7 7 8 8 7 6 6 4 4 5 5 6 7 6 7 7 7 6 4 4 4 3 4 4 3 4 4 4 4 5 4 4 5 5 6 6 5 4 3
6 5 6 6 6 4 4 8 6 5 7 7 7 6 6 5 4 4 4 4 5 6 5 7 7 8 8 8 7 7 6 5 5 4 4 4 5 5 5 5 5 5 4 5 5 5 5 5 4
3 1 3 4 5 6 4 7 8 3 6 6 5 4 4 4 4 4 4 4 4 4 5 5 6 7 8 8 8 8 7 5 4 4 5 5 5 5 5 5 5 5 4 5 5 5 6 5 5
3 2 1 2 4 7 6 8 8 4 6 4 3 3 3 3 3 3 3 3 3 3 4 4 5 6 6 8 8 8 8 7 6 6 5 5 4 4 6 5 5 5 5 5 5 5 6 5 5
4 3 2 3 4 6 3 7 10 5 4 4 4 4 3 2 3 3 2 2 2 3 3 4 5 5 5 7 8 8 8 8 8 7 6 5 4 4 6 6 6 5 5 5 5 5 5 6 6
6 5 4 4 5 3 3 9 7 3 4 4 4 3 2 2 2 3 3 2 2 2 3 3 4 5 5 6 6 6 7 6 5 6 6 6 5 5 6 6 6 6 6 6 6 5 5 5 5
5 5 2 1 1 5 7 7 7 4 3 2 2 2 2 2 2 2 2 2 2 2 3 3 4 4 4 5 5 5 6 6 6 6 6 5 5 4 6 6 6 6 6 6 6 4 5 5 5
2 3 3 4 4 7 7 8 6 5 4 2 2 2 2 2 1 2 2 2 2 2 2 2 3 4 4 4 4 4 5 5 5 5 6 5 5 5 6 6 6 6 6 6 6 5 5 5 5
5 5 5 4 4 5 6 6 2 4 3 3 3 2 2 2 2 2 2 2 2 2 2 2 3 3 3 3 4 4 5 5 5 5 5 5 5 5 6 6 6 6 6 6 6 6 6 6 5
5 7 7 6 6 6 6 8 1 3 2 3 3 3 2 2 2 2 2 1 1 2 2 2 3 3 3 3 4 4 4 5 5 5 5 5 5 5 6 6 6 6 6 7 7 7 7 7 6
Wind_Direction
337 328 276 233 215 220 228 212 208 181 178 143 55 220 214 215 295 56 79 139 141 146 145 144 133 125 119 119 119 119 121 122 120 118 114 112 109 106 104 100 99 99 96 93 89 88 87 84 80
341 314 218 221 229 220 216 208 206 194 122 132 147 193 182 153 37 73 122 140 150 142 143 141 129 124 121 118 118 120 119 116 118 119 115 110 108 107 105 103 102 101 98 94 92 88 88 87 84
1 344 224 208 227 230 213 189 203 161 149 187 167 198 281 96 100 108 106 148 147 142 141 132 127 127 125 123 117 116 117 115 111 115 117 114 109 106 108 107 105 104 101 97 94 90 90 87 84
217 162 198 223 221 233 244 175 153 164 162 191 193 162 137 51 49 62 124 150 145 141 139 131 129 128 127 123 120 116 112 112 114 114 116 116 112 108 110 112 110 107 103 99 95 91 90 89 87
208 196 201 219 228 225 230 243 203 200 186 178 201 185 144 97 57 102 136 147 145 140 137 138 128 128 129 128 123 116 114 111 111 114 115 114 112 111 114 114 115 112 107 102 98 94 93 92 89
171 201 212 221 223 221 221 229 227 230 216 199 211 197 133 102 108 118 133 139 142 139 135 138 126 125 126 126 123 119 118 114 112 109 112 111 110 111 114 117 118 115 111 107 102 98 95 94 92
203 203 225 228 229 228 219 200 237 237 227 218 228 203 148 137 116 129 136 133 133 133 136 141 148 142 130 122 119 117 117 116 113 110 107 106 105 106 111 113 114 115 114 111 106 104 99 96 94
247 198 209 222 229 235 210 200 237 246 247 175 229 224 179 132 132 134 131 134 133 136 141 143 145 152 153 145 119 112 111 113 111 110 105 103 104 104 104 116 114 116 116 113 111 107 100 94 90
225 219 223 221 223 226 192 212 213 243 210 193 224 289 33 121 141 142 143 151 153 156 163 161 156 155 155 152 136 133 123 118 123 123 111 116 132 131 131 113 110 114 113 113 111 106 99 97 93
218 227 233 236 237 226 205 226 215 199 216 217 216 204 137 149 161 168 174 177 182 186 185 181 176 170 166 156 154 155 153 148 148 136 133 136 133 124 130 117 111 107 109 116 111 107 111 115 113
208 236 235 233 247 248 238 246 235 230 238 237 238 216 175 177 182 188 194 194 194 194 187 193 194 186 181 172 168 161 160 153 152 142 139 136 135 135 138 134 127 129 132 131 125 131 125 110 98
206 234 243 252 246 253 254 250 237 237 257 298 274 219 187 189 194 197 201 202 195 193 194 195 200 196 194 188 178 171 165 161 160 149 155 155 156 156 152 145 144 147 146 139 144 138 123 116 106
214 232 237 254 254 260 262 251 258 252 264 275 256 199 199 200 203 203 206 207 202 202 201 198 200 200 193 191 185 181 176 172 165 163 171 177 178 172 165 153 150 148 145 153 153 147 140 133 120
184 216 255 266 251 243 253 261 254 260 266 256 237 223 220 217 217 214 212 216 213 211 209 204 200 198 191 191 192 187 181 172 170 166 179 189 193 183 173 165 159 154 153 155 161 158 149 145 141
185 253 259 248 251 250 260 257 240 262 258 249 244 240 237 237 231 226 223 223 222 216 212 206 202 195 191 191 193 190 181 176 178 176 185 187 190 188 183 172 174 165 158 162 162 158 153 152 154
224 242 251 219 248 252 242 258 252 268 246 248 248 245 240 242 240 237 232 230 228 220 213 207 199 196 193 189 190 188 184 176 180 185 188 188 189 192 193 184 180 167 164 170 169 169 163 168 178
214 243 256 257 208 254 240 264 281 276 257 257 255 250 244 244 243 237 231 228 226 220 213 206 200 198 193 187 184 183 183 181 182 188 191 192 194 194 194 193 184 173 170 177 175 180 181 181 183
223 239 257 262 291 266 254 265 274 270 266 264 262 257 251 249 249 242 233 229 223 214 210 205 199 197 191 182 180 181 183 188 190 191 192 189 191 193 196 190 185 180 178 181 182 177 176 180 176
241 249 269 276 295 274 266 272 276 272 259 258 256 253 253 254 258 248 233 226 221 213 207 205 201 197 192 187 188 192 199 198 197 199 197 197 191 187 193 189 186 186 189 186 184 176 169 167 165
236 256 268 283 289 279 285 279 273 263 254 253 254 253 253 257 255 244 230 221 219 214 208 204 204 201 199 198 196 197 197 204 206 199 200 202 195 188 192 192 189 192 192 186 185 183 179 172 184
238 248 261 279 301 263 289 278 252 246 248 252 250 252 255 255 255 250 234 223 221 222 215 209 206 204 202 198 188 182 189 195 198 203 202 204 199 193 195 197 195 193 195 193 194 196 192 190 192
244 237 248 263 275 281 301 292 271 252 263 255 251 248 251 252 252 253 241 231 225 226 219 215 210 205 200 195 195 195 198 201 207 206 204 200 200 202 198 196 198 198 199 200 199 202 205 204 200
234 183 227 245 252 270 242 263 278 235 254 254 246 245 250 255 258 259 251 242 234 225 218 212 208 205 200 199 199 200 206 206 203 199 201 199 198 204 204 198 198 199 203 204 199 198 206 212 212
152 142 170 210 234 253 234 238 272 231 240 251 238 238 255 266 267 268 264 247 232 225 218 210 206 203 198 199 202 205 206 202 199 199 200 200 199 203 207 203 199 202 204 206 206 201 205 211 214
183 198 237 231 229 248 184 232 256 256 253 253 267 275 278 272 272 276 273 256 244 229 218 212 208 207 200 198 203 208 209 207 207 205 205 203 202 205 206 201 201 203 207 207 206 203 207 210 210
202 216 222 246 255 273 203 238 256 277 283 270 263 267 281 276 272 278 274 261 250 240 225 214 213 214 205 203 207 209 209 211 214 212 209 208 208 210 205 203 203 204 204 204 203 203 205 211 213
186 212 256 248 300 271 251 256 277 253 254 235 238 252 283 296 291 284 287 273 257 243 231 223 220 222 217 212 210 211 209 212 217 215 216 216 215 209 205 204 203 205 206 205 199 204 204 207 214
248 168 173 203 237 255 259 251 243 223 229 226 252 270 300 321 321 306 302 294 278 263 247 236 227 228 226 220 216 213 211 213 218 217 216 217 216 210 205 206 205 205 204 202 202 206 208 208 211
176 186 206 214 243 249 265 259 214 214 214 229 254 279 302 314 313 305 307 303 286 275 260 245 241 236 232 225 225 222 217 215 215 219 220 219 217 213 210 209 205 205 205 203 204 207 205 209 213
226 210 194 214 231 239 260 268 101 233 239 239 262 284 303 309 307 303 305 309 295 286 282 266 253 246 243 234 227 226 222 217 216 220 223 219 216 213 211 209 207 208 208 207 208 209 208 209 213